Location: Antioch Baptist Church
(32.6696°N, 85.7327°W)
Time: 21:08:08
(UTC+00:00)

Cosmos 2369 - Pass Details

Date: 14 July 2020
Orbit: 838 x 857 km, 71.0° (Epoch: 13 August)

Event Time Altitude Azimuth Distance (km) Brightness Sun altitude
Rises 08:31:32 0° 336° (NNW) 3,430 7.2 -23.3°
Reaches altitude 10° 08:34:00 10° 334° (NNW) 2,492 6.4 -22.9°
Maximum altitude 08:39:41 68° 252° (WSW) 919 3.6 -22.1°
Enters shadow 08:42:04 35° 181° (S) 1,338 4.3 -21.8°
